EST,Max TemperatureF,Mean TemperatureF,Min TemperatureF,Max Dew PointF,MeanDew PointF,Min DewpointF,Max Humidity, Mean Humidity, Min Humidity, Max Sea Level PressureIn, Mean Sea Level PressureIn, Min Sea Level PressureIn, Max VisibilityMiles, Mean VisibilityMiles, Min VisibilityMiles, Max Wind SpeedMPH, Mean Wind SpeedMPH, Max Gust SpeedMPH,PrecipitationIn, CloudCover, Events, WindDirDegrees
2012-11-1,42,40,38,36,34,33,87,79,70,29.69,29.61,29.56,10,10,10,17,12,30,0.00,8,,252
2012-11-2,42,38,35,33,32,30,87,78,65,29.88,29.74,29.67,10,10,6,17,11,29,0.00,7,Rain,270
2012-11-3,41,38,35,30,28,25,81,69,56,30.05,29.96,29.88,10,10,7,17,10,29,0.00,8,,298
2012-11-4,38,36,34,28,25,22,68,63,59,30.07,30.04,30.03,10,10,10,12,6,16,0.00,8,,322
2012-11-5,39,36,32,23,21,18,65,60,45,30.16,30.09,30.03,10,10,10,12,6,,0.00,7,,344
2012-11-6,39,32,26,21,20,18,77,62,48,30.15,30.09,30.01,10,10,10,8,2,,0.00,4,,93
2012-11-7,41,32,24,23,18,10,86,61,33,30.02,29.97,29.92,10,10,10,12,4,,0.00,0,,30
2012-11-8,46,38,30,24,18,10,69,51,23,30.08,30.01,29.95,10,10,10,17,6,23,0.00,0,,322
2012-11-9,51,42,32,31,29,25,77,66,41,30.20,30.15,30.08,10,10,10,12,5,21,0.00,3,,259
2012-11-10,53,44,35,39,36,31,93,77,54,30.33,30.27,30.19,10,9,5,5,1,,0.00,3,Rain,355
2012-11-11,64,50,35,39,36,32,100,67,30,30.43,30.35,30.32,10,8,2,6,1,,0.00,1,,209
2012-11-12,62,52,42,52,43,36,86,66,47,30.32,30.22,30.05,10,9,4,28,8,40,0.21,4,Rain,228
2012-11-13,41,36,32,37,27,21,91,70,49,30.49,30.37,30.23,10,10,4,15,9,20,0.11,7,Rain,307
2012-11-14,41,36,30,24,22,19,74,64,45,30.55,30.47,30.43,10,10,10,12,6,,0.00,4,,32
2012-11-15,42,34,26,26,24,23,86,74,46,30.42,30.34,30.28,10,10,10,6,2,,0.00,0,,34
2012-11-16,46,36,26,28,25,25,93,72,43,30.47,30.36,30.29,10,10,10,8,1,,0.00,0,,43
2012-11-17,50,37,24,30,26,23,93,73,43,30.61,30.55,30.48,10,10,10,5,1,,0.00,0,,1
2012-11-18,48,37,26,30,27,24,100,77,43,30.61,30.56,30.50,10,9,5,6,0,,0.00,0,,116
2012-11-19,44,35,26,32,29,25,100,85,61,30.50,30.38,30.23,10,8,4,5,0,,0.00,1,,345
2012-11-20,46,37,28,34,30,27,100,81,57,30.22,30.15,30.07,10,8,2,0,0,,0.00,1,,-1
2012-11-21,51,38,26,34,28,25,95,73,35,30.23,30.18,30.13,10,8,1,0,0,,0.00,0,,-1
2012-11-22,57,42,26,30,26,23,86,62,29,30.25,30.18,30.07,10,10,10,9,1,,0.00,0,,222
2012-11-23,53,42,32,45,28,21,87,63,41,30.06,29.89,29.75,10,10,10,29,7,39,0.00,4,Rain,252
2012-11-24,35,32,30,23,20,18,72,63,52,29.95,29.88,29.84,10,10,7,22,15,36,0.00,8,Snow,278
2012-11-25,35,32,28,23,19,16,75,61,48,29.96,29.92,29.84,10,10,4,18,9,24,0.00,6,Snow,245
2012-11-26,42,36,31,25,22,19,75,59,39,30.20,30.08,29.93,10,10,10,17,5,12,0.00,5,,249
2012-11-27,35,32,30,32,26,18,100,79,58,30.24,30.22,30.19,10,6,1,6,1,,0.00,8,Rain-Snow,327
2012-11-28,39,34,28,20,18,16,67,58,39,30.29,30.24,30.19,10,10,10,20,6,21,0.00,5,,269
2012-11-29,44,35,26,23,19,16,80,58,31,30.35,30.29,30.25,10,10,10,14,7,,0.00,1,,237
2012-11-30,44,34,24,26,22,18,86,64,46,30.33,30.29,30.25,10,10,10,8,1,,0.00,4,Rain,339